Theta_e
309 309 310 310 313 315 318 319 326 326 326 324 322 325 325 322 323 324 323 324 323 325 324 323 324 320 318 319 319 318 315 314 317 319 321 324 325 329 330 333 334 331 334 340
309 309 310 310 312 315 315 317 322 329 326 328 326 324 326 325 326 325 324 325 324 323 323 323 324 327 327 329 318 317 317 315 318 319 318 325 330 328 328 328 329 334 341 339
309 309 310 310 312 315 315 318 328 325 323 323 329 329 329 328 328 328 327 326 324 324 322 322 328 340 337 335 335 339 324 313 316 319 320 333 332 331 331 324 328 332 338 341
309 310 310 310 313 316 315 317 325 327 329 328 328 328 327 332 331 327 325 324 325 324 323 327 341 339 337 334 338 325 314 317 318 320 323 334 334 332 332 332 333 336 338 339
310 310 310 310 313 315 316 319 326 324 327 326 328 329 333 332 331 334 335 328 329 322 321 331 336 338 336 336 334 333 327 317 320 323 333 333 334 335 333 332 333 332 335 339
310 310 310 310 312 315 319 323 323 322 326 327 327 328 331 332 334 335 335 335 334 323 328 335 333 332 330 333 336 336 335 329 321 320 321 324 326 331 333 332 336 338 338 334
310 310 310 310 311 314 316 318 320 322 328 328 331 331 331 334 334 336 335 335 335 335 331 331 333 335 337 335 333 331 335 332 320 325 332 334 328 333 334 335 334 336 335 334
311 310 310 310 310 312 315 316 319 322 326 327 329 328 329 332 331 335 337 334 331 328 333 334 336 337 335 337 336 334 331 323 325 329 333 333 334 334 335 336 336 343 335 339
310 310 311 310 310 311 314 315 318 321 326 324 325 326 327 333 331 332 334 332 329 333 331 332 344 344 343 343 339 332 333 332 331 326 333 336 331 339 340 336 344 346 336 340
310 310 310 310 310 311 315 316 318 322 325 320 322 326 327 326 328 329 332 331 333 335 333 341 345 345 339 340 342 341 339 337 339 329 330 330 342 341 342 343 353 349 347 338
310 310 310 310 310 314 316 316 317 321 322 319 320 321 322 323 326 329 330 335 332 338 340 339 338 341 341 340 339 339 340 346 349 345 331 339 339 342 340 344 344 353 353 353
310 310 310 310 311 315 317 316 317 317 319 319 320 319 319 320 321 323 324 330 331 338 338 336 335 337 335 333 337 333 345 339 342 344 344 336 336 341 340 342 346 344 344 346
310 310 310 310 310 313 315 316 316 318 319 318 317 319 322 321 320 321 324 323 329 334 329 334 332 334 332 336 335 338 338 337 342 341 340 338 338 336 339 341 344 344 349 343
309 310 310 310 310 312 315 316 317 316 316 321 318 320 319 320 320 322 323 323 322 327 331 333 333 337 331 332 333 337 338 339 339 340 339 338 337 337 337 336 337 340 343 349
309 309 310 310 310 312 315 316 316 317 316 321 318 317 320 323 323 322 323 324 323 320 325 333 338 335 338 335 337 339 335 337 342 346 338 337 336 336 337 339 341 338 348 354
309 309 310 310 310 314 315 317 317 316 315 317 323 316 318 321 324 325 323 324 324 320 323 325 329 334 340 343 345 338 334 334 336 338 337 336 334 333 333 336 337 340 345 351
309 309 309 310 312 315 316 318 314 316 315 318 321 319 320 324 324 322 323 323 323 322 322 324 325 327 336 335 336 331 337 335 334 335 335 333 332 331 332 330 333 337 345 347
309 309 310 312 314 315 315 316 316 316 316 318 322 322 322 325 325 325 322 325 323 324 325 325 327 328 335 342 337 333 333 335 336 334 336 332 333 335 334 339 338 344 343 341
309 310 312 314 314 314 315 315 315 316 316 320 321 324 326 322 325 326 327 323 327 324 327 327 328 331 337 338 337 339 337 337 335 333 334 334 336 333 340 343 344 346 343 342
309 312 313 316 315 315 315 315 316 316 315 315 320 316 321 321 324 330 332 329 328 331 328 325 328 329 330 331 333 334 334 334 334 337 339 338 337 336 335 342 343 336 332 337
312 314 316 314 314 314 316 320 320 320 321 319 317 317 320 318 328 332 329 336 332 331 329 330 332 333 331 329 332 330 328 330 335 335 336 334 333 332 330 331 330 328 328 329
313 315 313 314 315 318 321 322 319 320 321 318 320 323 319 319 325 329 329 335 331 338 331 331 332 334 339 332 332 330 329 329 331 335 335 337 337 333 327 326 329 331 331 329
314 315 315 317 317 319 323 324 324 324 320 322 327 327 328 326 326 329 329 335 335 330 337 340 339 336 336 333 333 332 329 331 336 342 341 334 331 330 330 331 337 333 329 336
317 319 316 320 320 319 319 318 319 321 324 325 324 324 329 329 330 326 330 329 333 338 337 338 333 333 335 337 335 339 335 336 340 340 340 340 339 338 338 338 339 336 335 333
318 320 319 321 317 320 322 319 324 324 324 322 322 323 328 329 331 333 330 335 337 339 335 335 328 329 330 337 337 337 340 339 338 337 337 336 335 335 333 334 333 331 330 329
317 318 320 321 321 323 325 325 325 321 322 321 321 325 328 328 329 334 333 336 334 332 335 333 331 333 334 337 337 337 337 335 335 335 334 333 333 333 332 331 330 329 328 325
317 319 316 319 321 322 323 323 324 322 321 323 326 329 329 328 331 332 332 334 333 331 328 327 326 331 335 337 336 336 335 334 334 333 333 332 332 331 330 328 329 328 327 326
Wind_Speed
17 19 21 19 22 29 11 7 2 11 29 3 2 3 5 5 8 12 7 6 7 3 3 4 3 7 10 10 10 10 12 6 7 12 6 6 8 10 8 5 5 2 5 6
17 17 19 17 17 19 10 4 3 3 14 2 3 6 8 6 18 15 5 6 7 4 4 4 2 6 4 7 4 10 6 3 5 10 8 5 2 3 2 2 5 5 6 5
15 16 16 17 13 14 8 3 3 4 2 1 2 3 9 7 7 11 8 11 6 3 6 1 4 7 4 9 5 7 9 4 7 8 8 4 0 4 5 5 4 5 7 5
13 14 14 16 12 11 6 1 4 1 3 4 5 2 6 14 12 3 6 7 5 5 3 5 3 3 8 7 11 8 4 6 6 7 8 3 5 6 7 5 4 2 6 11
12 12 12 14 11 12 0 1 3 4 4 4 4 3 3 6 10 3 9 9 18 7 6 8 5 2 1 2 7 10 6 5 1 3 5 5 4 9 8 6 2 7 7 6
11 10 10 12 9 8 3 5 6 2 5 5 4 3 8 12 10 1 7 13 12 2 5 6 7 6 3 4 2 3 3 3 5 6 3 3 5 8 6 4 0 7 7 9
9 9 8 9 6 5 3 3 4 2 4 3 4 7 9 13 8 4 6 13 10 5 7 3 2 4 4 1 2 2 2 4 3 4 2 3 7 5 5 7 6 6 7 8
7 8 8 8 6 5 5 5 3 2 3 5 8 12 5 8 7 4 3 6 5 10 3 4 5 6 8 4 0 2 4 4 2 2 4 5 4 3 5 6 6 11 9 7
7 7 8 7 8 5 6 10 8 4 1 3 4 6 5 3 5 6 3 4 9 6 3 4 3 2 1 6 13 6 3 7 4 1 5 8 7 4 6 9 1 17 1 11
6 7 8 7 9 6 5 6 6 4 2 4 4 2 4 4 4 3 5 8 8 8 4 3 2 2 3 3 5 6 4 4 2 3 5 6 2 9 5 6 1 7 2 3
6 6 7 7 6 4 6 6 6 3 3 7 7 8 4 4 1 1 5 3 5 4 4 3 2 3 2 3 3 3 3 3 3 4 3 4 11 11 4 8 2 10 17 16
6 5 6 6 6 4 4 4 4 10 4 6 26 31 31 27 23 3 4 4 4 3 2 1 1 3 3 5 2 3 2 2 4 5 4 8 6 3 5 12 7 8 14 19
7 6 6 5 7 7 5 5 8 4 3 8 5 7 15 20 32 33 3 3 4 3 4 4 3 4 3 4 4 1 3 1 2 4 7 7 4 1 4 6 18 18 21 21
7 6 6 6 9 7 6 4 3 3 3 4 6 12 17 16 15 28 33 16 4 4 2 3 3 3 3 3 2 3 4 4 4 5 7 8 6 7 9 12 8 13 16 23
7 6 7 7 7 7 6 8 11 8 2 3 6 26 21 14 15 24 35 26 11 1 1 2 3 3 3 2 1 3 4 6 4 5 8 5 9 6 5 9 11 12 18 17
6 6 7 7 7 5 2 1 1 10 7 2 4 7 7 13 8 10 12 15 9 3 5 4 4 4 4 3 3 7 3 8 5 5 7 10 14 10 10 9 6 6 7 13
6 6 6 7 7 8 3 1 2 2 7 1 5 5 5 9 6 2 2 4 4 4 3 3 3 4 4 3 4 7 9 14 17 10 6 8 5 7 7 7 18 14 18 21
6 6 7 5 5 5 5 6 2 6 2 2 3 5 5 7 2 1 2 2 2 1 4 2 2 2 4 4 10 13 16 11 11 10 11 10 9 17 14 11 8 11 8 3
8 8 7 4 3 3 2 3 5 5 2 2 2 3 4 6 3 2 2 3 1 2 5 6 2 3 4 7 10 14 15 12 13 10 11 13 14 7 3 13 11 13 11 15
9 6 3 2 4 3 4 3 1 1 2 2 3 3 4 4 3 3 3 1 4 2 5 3 5 8 7 7 11 15 17 15 7 6 8 10 12 6 4 6 11 13 13 15
5 3 1 3 7 2 1 2 2 2 2 3 4 6 4 3 2 3 1 3 2 3 5 6 3 4 10 9 7 9 8 11 12 7 4 7 6 11 5 4 10 12 19 15
6 5 5 4 1 2 2 3 2 3 3 3 3 4 5 4 2 2 3 3 4 4 4 2 3 3 6 8 10 10 8 6 2 1 5 3 5 16 12 7 5 11 13 9
5 3 2 2 2 2 3 4 3 3 3 3 3 4 2 1 2 2 2 4 4 6 1 3 2 4 4 5 3 5 5 5 4 8 12 17 14 15 12 6 14 17 21 14
2 3 3 3 3 4 5 4 3 4 0 3 2 3 2 2 3 3 3 4 3 4 3 4 3 5 4 6 5 2 6 3 9 8 12 15 13 12 14 15 17 19 16 18
2 2 4 5 5 4 4 6 2 2 1 2 3 3 1 3 3 3 2 1 4 4 3 3 3 6 4 5 2 4 9 11 9 9 12 12 17 16 15 18 20 22 23 24
1 2 2 3 1 3 2 1 1 2 1 1 0 2 2 4 3 3 5 3 4 3 3 4 1 2 8 6 5 9 10 10 8 12 19 17 18 16 16 17 18 18 21 22
2 3 3 3 5 6 3 1 1 1 2 1 1 2 5 4 2 3 4 5 4 4 5 4 5 5 7 4 8 11 11 11 15 15 18 19 22 24 21 10 17 20 20 21
Wind_Direction
333 336 344 343 348 349 5 341 336 147 153 80 190 195 212 289 290 296 272 257 228 268 307 308 272 219 215 203 176 183 197 170 229 221 253 227 205 190 151 127 237 182 145 263
331 336 342 345 352 5 345 327 268 268 192 161 248 290 290 260 277 278 289 294 284 275 288 337 235 294 359 29 171 179 175 225 265 313 346 359 336 134 122 58 70 192 152 247
329 333 338 344 350 355 358 325 340 315 58 100 159 328 288 274 269 279 268 265 267 359 343 174 312 336 325 334 349 295 107 131 164 221 219 200 258 299 114 80 98 223 215 203
325 330 335 343 344 346 350 216 263 6 323 326 320 273 271 294 288 286 336 300 226 235 288 352 325 325 324 6 349 28 51 164 162 208 215 244 267 232 266 141 175 122 208 181
321 326 329 339 340 342 48 286 21 340 290 283 300 244 298 324 330 33 335 345 312 241 190 185 220 86 46 327 345 2 7 315 201 207 192 211 268 282 306 287 273 211 204 208
315 318 323 334 339 357 325 331 336 102 281 323 12 331 322 329 358 277 3 313 310 322 315 186 197 195 202 144 46 359 355 60 15 281 286 305 335 236 240 252 25 164 171 210
311 310 313 322 321 352 323 301 311 10 283 330 349 321 334 346 330 266 317 357 19 331 318 19 60 54 295 17 104 194 262 132 152 246 26 215 235 288 174 186 241 242 323 177
302 300 299 301 301 293 296 280 318 343 289 342 302 345 312 322 319 335 311 337 274 290 350 28 4 359 1 331 250 235 203 112 358 167 195 264 282 258 202 106 313 338 200 83
292 292 290 288 298 262 285 288 282 265 329 236 340 311 320 351 324 326 294 319 300 31 109 69 73 86 307 317 323 167 108 102 130 56 225 209 236 298 23 88 282 352 105 146
284 283 283 279 291 244 267 266 314 285 268 271 37 294 315 343 332 280 321 323 341 31 18 84 124 210 159 268 309 329 332 48 46 261 243 285 31 313 287 106 333 312 63 207
277 273 274 276 276 235 237 265 313 286 259 283 261 275 293 325 282 355 294 359 353 34 57 101 209 146 198 319 275 304 349 58 351 333 307 235 356 327 234 136 138 92 60 23
258 265 267 276 243 248 240 272 287 317 228 259 298 287 267 248 248 322 311 212 212 140 102 309 163 199 154 160 292 337 154 182 186 170 229 259 303 214 317 118 189 141 95 39
245 251 256 265 227 231 236 266 315 322 282 283 257 244 297 264 229 227 191 285 201 155 173 151 212 233 142 150 238 282 307 159 81 41 235 251 249 262 324 55 121 114 118 140
242 240 249 252 216 231 240 251 255 306 280 281 287 313 307 289 264 213 216 234 283 105 128 150 164 236 157 177 144 214 205 215 152 251 291 281 240 214 169 191 185 165 169 180
239 238 235 247 221 226 233 254 256 246 251 290 293 306 286 299 266 215 215 223 233 183 183 156 227 166 149 93 77 268 195 214 139 212 224 206 271 269 158 209 200 164 182 186
226 232 221 229 215 199 209 282 237 233 214 291 292 293 286 302 280 242 196 209 217 181 171 218 241 178 117 154 166 266 268 304 231 240 221 199 239 302 266 235 209 198 171 162
205 214 206 208 201 199 207 277 320 201 191 266 289 296 267 267 228 274 189 157 178 145 199 237 230 272 94 130 203 229 235 237 251 223 304 324 242 255 202 226 248 195 178 165
193 184 177 187 205 212 280 261 235 172 232 251 285 276 314 358 341 275 182 167 101 248 201 312 218 296 168 203 219 216 221 224 269 261 243 253 312 306 312 311 184 128 93 49
176 166 154 146 177 203 238 202 176 194 237 287 273 276 284 345 316 277 312 134 154 237 191 222 124 279 225 220 197 198 212 206 230 241 229 247 272 293 106 93 100 94 97 89
165 162 167 187 207 205 146 115 173 191 194 237 251 283 274 2 333 296 345 183 196 224 240 125 181 237 245 249 188 209 215 217 198 177 208 227 257 132 155 120 124 115 114 101
186 185 146 127 141 134 214 175 219 176 224 207 235 220 246 286 231 264 355 321 238 186 252 157 235 247 232 226 229 230 185 178 192 193 187 212 245 151 156 135 116 114 119 122
181 145 123 128 163 204 228 195 166 216 239 235 215 232 197 259 144 87 355 257 315 241 327 176 236 272 293 199 209 225 226 247 344 86 212 121 211 172 138 114 225 118 90 132
150 185 138 162 146 162 213 199 208 218 208 264 323 317 212 286 65 70 46 26 266 306 237 235 224 277 332 117 78 4 298 284 35 63 96 98 98 110 120 128 218 99 118 161
209 167 149 214 185 231 201 211 195 225 291 342 325 284 273 235 131 150 146 230 294 315 296 250 221 252 222 129 66 224 265 235 114 98 96 101 106 106 108 107 105 122 130 124
220 196 208 214 230 249 240 216 256 353 46 18 343 310 289 285 173 186 120 246 252 236 246 288 268 264 265 145 145 128 121 109 99 103 99 98 99 94 81 92 112 117 118 123
241 238 278 272 259 301 338 52 62 4 344 327 53 287 285 259 215 160 201 193 236 260 272 277 333 235 274 248 126 116 105 109 127 115 115 117 116 115 116 117 115 120 129 128
256 249 230 213 248 250 217 141 201 279 50 266 304 253 230 299 244 225 192 212 190 218 248 263 307 330 292 140 110 114 123 125 116 114 112 114 117 116 112 104 122 133 137 138